User: anonymous   Login
Location: Pine Mountain Observatory
(43.7910°N, 120.9377°W)
Time: 16:09:15
(UTC-07:00)
Language:

Meteor 2-19 Rocket - Orbit

View from above orbital plane
View from above orbital plane
View from above satellite
View from above satellite

Ground track
Ground track

The orbit data is extracted from the following two-line orbital elements,

1 20671U 90057B   14296.84524105  .00000080  00000-0  57956-4 0  1208
2 20671 082.5488 061.0208 0016096 151.0254 318.5426 13.84578221229205
Epoch (UTC): 23 October 2014 20:17:08
Eccentricity: 0.0016096
inclination: 82.5488°
perigee height: 936 km
apogee height: 959 km
right ascension of ascending node: 61.0208°
argument of perigee: 151.0254°
revolutions per day: 13.84578221
mean anomaly at epoch: 318.5426°
orbit number at epoch: 22920

The dashed part of the orbit path shows where the satellite is in the earth's shadow,  

DLR